Regional Weather Roundup
Issued by NWS

Home | Current Version | Previous Version | Text Only | Print | Product List | Glossary Off
Versions: 1 2 3 4 5 6 7 8 9 10 11 12 13 14 15 16 17 18 19 20 21 22 23 24 25 26 27 28 29 30 31 32 33 34 35 36 37 38 39 40 41 42 43 44 45 46 47 48 49 50

238
ASUS43 KDTX 291801
RWRMI
MICHIGAN HOURLY REGIONAL WEATHER ROUNDUP
NATIONAL WEATHER SERVICE DETROIT/PONTIAC MI
200 PM EDT MON AUG 29 2016

NOTE: "FAIR" INDICATES FEW OR NO CLOUDS BELOW 12,000 FEET WITH NO
SIGNIFICANT WEATHER AND/OR OBSTRUCTION TO VISIBILITY.

MIZ047>049-052>055-059>063-066>070-074>076-081>083-291900-
SOUTHEAST LOWER MICHIGAN

CITY           SKY/WX    TMP DP  RH WIND       PRES   REMARKS
ADRIAN         SUNNY     80  69  69 VRB5      30.29F
6HR MIN TEMP:  69; 6HR MAX TEMP:  80;

ALMA           CLOUDY    75  70  85 N3        30.31S
6HR MIN TEMP:  66; 6HR MAX TEMP:  75;

ANN ARBOR      MOSUNNY   81  66  60 NE3       30.28F
BAD AXE        SUNNY     77  59  53 SW3       30.29F
6HR MIN TEMP:  59; 6HR MAX TEMP:  77;

CARO           MOSUNNY   78  65  62 CALM      30.28F
DETROIT CITY   SUNNY     79  68  69 S8        30.28F
6HR MIN TEMP:  68; 6HR MAX TEMP:  79;

DETROIT        MOSUNNY   80  65  59 CALM      30.28F
6HR MIN TEMP:  69; 6HR MAX TEMP:  80;

FLINT          MOSUNNY   83  65  54 CALM      30.28F
6HR MIN TEMP:  68; 6HR MAX TEMP:  83;

GROSSE ILE     SUNNY     79  68  69 S9        30.27F
6HR MIN TEMP:  69; 6HR MAX TEMP:  79;

HILLSDALE      PTSUNNY   80  67  63 CALM      30.29S
6HR MIN TEMP:  51; 6HR MAX TEMP:  84;

HOWELL         PTSUNNY   80  66  62 E3        30.29F
6HR MIN TEMP:  62; 6HR MAX TEMP:  80;


CITY           SKY/WX    TMP DP  RH WIND       PRES   REMARKS
JACKSON        SUNNY     81  63  54 SE8       30.28F
6HR MIN TEMP:  66; 6HR MAX TEMP:  81;

LAMBERTVILLE   MOSUNNY   80  68  66 E7        30.29S
6HR MIN TEMP:  70; 6HR MAX TEMP:  80;

LANSING        SUNNY     81  65  58 CALM      30.29F
6HR MIN TEMP:  64; 6HR MAX TEMP:  81;

LAPEER         FAIR      78  60  52 CALM      30.29F
6HR MIN TEMP:  65; 6HR MAX TEMP:  79;

MASON          SUNNY     81  64  57 S5        30.28F
MONROE         SUNNY     80  67  64 E8        30.28S
6HR MIN TEMP:  69; 6HR MAX TEMP:  80;

MT. CLEMENS    MOSUNNY   79  67  66 E7        30.27S
PONTIAC        MOSUNNY   79  63  57 CALM      30.28F
6HR MIN TEMP:  67; 6HR MAX TEMP:  80;

PORT HURON     SUNNY     77  63  61 NE3       30.28F
TRI CITIES     MOSUNNY   78  64  61 CALM      30.29F
6HR MIN TEMP:  66; 6HR MAX TEMP:  79;

MIDLAND        PTSUNNY   79  65  61 CALM      30.28F
6HR MIN TEMP:  66; 6HR MAX TEMP:  79;

TROY           SUNNY     82  61  49 E3        30.30S
SAGINAW HB     SUNNY     79  63  57 CALM      30.28F
$$
MIZ043>046-050>051-056>058-064>065-071>073-077>080-291900-
SOUTHWEST LOWER MICHIGAN

CITY           SKY/WX    TMP DP  RH WIND       PRES   REMARKS
BATTLE CREEK   SUNNY     79  68  69 MISG      30.28F
6HR MIN TEMP:  67; 6HR MAX TEMP:  80;

BENTON HARBOR  MOSUNNY   86  69  56 SE6       30.25F HX  90
6HR MIN TEMP:  68; 6HR MAX TEMP:  86;

BIG RAPIDS     CLOUDY    76  69  77 E6        30.29F
6HR MIN TEMP:  63; 6HR MAX TEMP:  77;

COLDWATER      PTSUNNY   81  69  65 SE6       30.28S
6HR MIN TEMP:  69; 6HR MAX TEMP:  82;

FREMONT        FAIR      81  66  61 CALM      30.27F
6HR MIN TEMP:  64; 6HR MAX TEMP:  81;

HOLLAND        MOSUNNY   84  70  62 E3        30.27F
6HR MIN TEMP:  67; 6HR MAX TEMP:  85;

GRAND RAPIDS   PTSUNNY   81  66  60 VRB3      30.28F
6HR MIN TEMP:  65; 6HR MAX TEMP:  82;

IONIA          FAIR      79  65  60 E6        30.28S
6HR MIN TEMP:  63; 6HR MAX TEMP:  80;

KALAMAZOO      MOSUNNY   83  68  60 S6        30.27F
6HR MIN TEMP:  68; 6HR MAX TEMP:  84;

LUDINGTON      SUNNY     79  69  71 SW8       30.25F
6HR MIN TEMP:  59; 6HR MAX TEMP:  80;

MOUNT PLEASANT PTSUNNY   76  68  76 S5        30.29F
6HR MIN TEMP:  66; 6HR MAX TEMP:  76;

MUSKEGON       PTSUNNY   83  68  60 W5        30.26F
6HR MIN TEMP:  65; 6HR MAX TEMP:  84;

SOUTH HAVEN    PTSUNNY   85  71  63 E3        30.25F
$$
MIZ016>042-291900-
NORTHERN LOWER MICHIGAN

CITY           SKY/WX    TMP DP  RH WIND       PRES   REMARKS
ALPENA         SUNNY     78  58  49 E9        30.29F
6HR MIN TEMP:  56; 6HR MAX TEMP:  79;

BEAVER ISLAND  CLOUDY    78  58  51 SE8       30.25F
6HR MIN TEMP:  62; 6HR MAX TEMP:  78;

BELLAIRE       SUNNY     82  58  44 SW5       30.26F
6HR MIN TEMP:  55; 6HR MAX TEMP:  82;

CADILLAC       MOSUNNY   78  65  63 SE5       30.29F
CHARLEVOIX     SUNNY     76  63  63 NW6       30.29F
6HR MIN TEMP:  61; 6HR MAX TEMP:  78;

FRANKFORT      SUNNY     81  64  56 S5        30.25F
GAYLORD        SUNNY     78  54  43 S8        30.30F
6HR MIN TEMP:  59; 6HR MAX TEMP:  78;

GRAYLING       MOSUNNY   81  60  48 S5        30.30F
HARBOR SPRINGS SUNNY     80  62  54 SW5       30.25F
HOUGHTON LAKE  SUNNY     77  62  59 W6        30.31F
6HR MIN TEMP:  56; 6HR MAX TEMP:  78;

MANISTEE       SUNNY     82  69  64 W9        30.24F
OSCODA         SUNNY     74  59  59 E6        30.30S
6HR MIN TEMP:  58; 6HR MAX TEMP:  75;

PELLSTON       SUNNY     78  57  48 SE7       30.27F
6HR MIN TEMP:  57; 6HR MAX TEMP:  78;

ROGERS CITY    SUNNY     72  63  72 E8        30.30F
TRAVERSE CITY  PTSUNNY   82  60  47 VRB5      30.24F
6HR MIN TEMP:  60; 6HR MAX TEMP:  82;

$$
MIZ007>008-015-291900-
EASTERN UPPER MICHIGAN

CITY           SKY/WX    TMP DP  RH WIND       PRES   REMARKS
KINROSS        SUNNY     74  60  61 S9        30.27F
6HR MIN TEMP:  54; 6HR MAX TEMP:  76;

MACKINAC ISLAN SUNNY     69  62  78 E10       30.27F
6HR MIN TEMP:  61; 6HR MAX TEMP:  69;

NEWBERRY       SUNNY     75  57  53 SE14G20   30.23F
6HR MIN TEMP:  55; 6HR MAX TEMP:  76;

S. S. MARIE    SUNNY     75  59  57 S6        30.25F
6HR MIN TEMP:  55; 6HR MAX TEMP:  75;

$$
MIZ004>006-011>014-085-291900-
CENTRAL UPPER MICHIGAN

CITY           SKY/WX    TMP DP  RH WIND       PRES   REMARKS
MANISTIQUE     MOSUNNY   73  65  76 SE13      30.23F
6HR MIN TEMP:  57; 6HR MAX TEMP:  75;

ESCANABA       CLOUDY    73  67  81 SE13      30.21F
6HR MIN TEMP:  59; 6HR MAX TEMP:  75;

SAWYER-GWINN   CLOUDY    75  66  73 S15       30.21F
$$
MIZ001>003-009>011-084-291900-
WESTERN UPPER MICHIGAN

CITY           SKY/WX    TMP DP  RH WIND       PRES   REMARKS
IRON MOUNTAIN  PTSUNNY   80  67  64 S10       30.20S
6HR MIN TEMP:  61; 6HR MAX TEMP:  80;

HOUGHTON       MOSUNNY   79  63  57 W7        30.14F
6HR MIN TEMP:  62; 6HR MAX TEMP:  79; 6HR PCP:  0.01;

IRONWOOD       CLOUDY    80  63  55 S7        30.16F
6HR MIN TEMP:  65; 6HR MAX TEMP:  80; 6HR PCP:  0.02;

$$

ABBREVIATIONS USED IN REMARKS
   TC - TEMPERATURE IN CELSIUS
  WCI - WIND CHILL INDEX
   HX - HEAT INDEX
  VSB - VISIBILITY





USA.gov is the U.S. government's official web portal to all federal, state and local government web resources and services.